Weather History for Clovis Cannon AFB, NM

Change the Weather History Date:

Thursday, November 29, 2012

  Actual Average Record
Temperature  
Mean Temperature 56 °F -  
Max Temperature 71 °F 53 °F 74 °F (2014)
Min Temperature 40 °F 29 °F 17 °F (2001)
Degree Days  
Heating Degree Days 10    
Growing Degree Days 6 (Base 50)    
Moisture  
Dew Point 26 °F    
Average Humidity 38    
Maximum Humidity 69    
Minimum Humidity 15    
Precipitation  
Precipitation 0.00 in - - ()
Sea Level Pressure  
Sea Level Pressure 30.00 in    
Wind  
Wind Speed 13 mph (West)    
Max Wind Speed 21 mph    
Max Gust Speed 28 mph    
Visibility 10 miles    
Events      
Averages and records for this station are not official NWS values.
T = Trace of Precipitation, MM = Missing Value Source: NWS Daily Summary

Daily Weather History Graph

Daily Weather History Graph

Search for Another Location

Airport:

Trip Planner

Search our weather history database for the weather conditions in past years. The results will help you decide how hot, cold, wet, or windy it might be!

Date:

Astronomy

Nov. 29, 2012 Rise Set
Actual Time 6:40 AM MST 4:43 PM MST
Civil Twilight 6:12 AM MST 5:10 PM MST
Nautical Twilight 5:41 AM MST 5:41 PM MST
Astronomical Twilight 5:11 AM MST 6:12 PM MST
Moon 5:48 PM MST (11/29) 7:28 AM MST (11/29)
Length of Visible Light 10h 58m
Length of Day
10h 03m
Full, 99% of the Moon is Illuminated
Nov 29
Full
Dec 6
Last Quarter
Dec 13
New
Dec 19
First Quarter
Dec 28
Full

Hourly Weather History & Observations

Time (MST) Temp. Windchill Dew Point Humidity Pressure Visibility Wind Dir Wind Speed Gust Speed Precip Events Conditions
12:58 AM 46.8 °F - 30.2 °F 53% 30.05 in 10.0 mi West 9.2 mph - N/A   Clear
1:58 AM 45.1 °F 39.5 °F 30.4 °F 56% 30.04 in 10.0 mi West 11.5 mph - N/A   Clear
2:58 AM 43.3 °F 37.7 °F 30.2 °F 60% 30.04 in 10.0 mi West 10.4 mph - N/A   Clear
3:58 AM 43.5 °F 37.1 °F 31.1 °F 62% 30.03 in 10.0 mi WSW 12.7 mph - N/A   Clear
4:58 AM 42.6 °F 35.6 °F 30.7 °F 63% 30.03 in 10.0 mi West 13.8 mph - N/A   Clear
5:58 AM 42.4 °F 35.7 °F 30.9 °F 64% 30.05 in 10.0 mi WSW 12.7 mph - N/A   Clear
6:58 AM 40.3 °F 33.4 °F 30.9 °F 69% 30.07 in 10.0 mi West 11.5 mph - N/A   Clear
7:58 AM 43.3 °F 36.8 °F 32.7 °F 66% 30.07 in 10.0 mi WSW 12.7 mph - N/A   Clear
8:58 AM 49.6 °F - 32.2 °F 51% 30.06 in 10.0 mi WSW 8.1 mph - N/A   Clear
9:58 AM 59.5 °F - 28.8 °F 31% 30.05 in 10.0 mi West 16.1 mph - N/A   Clear
10:58 AM 63.5 °F - 27.3 °F 25% 30.01 in 10.0 mi WNW 20.7 mph 27.6 mph N/A   Clear
11:58 AM 66.6 °F - 27.0 °F 23% 29.99 in 10.0 mi West 18.4 mph 27.6 mph N/A   Clear
12:58 PM 69.3 °F - 27.0 °F 21% 29.95 in 10.0 mi West 20.7 mph 25.3 mph N/A   Clear
1:58 PM 70.5 °F - 25.9 °F 19% 29.94 in 10.0 mi WNW 16.1 mph 23.0 mph N/A   Clear
2:58 PM 71.6 °F - 25.9 °F 18% 29.94 in 10.0 mi West 15.0 mph - N/A   Clear
3:58 PM 70.5 °F - 21.0 °F 15% 29.94 in 10.0 mi West 13.8 mph - N/A   Clear
4:58 PM 64.8 °F - 19.2 °F 17% 29.95 in 10.0 mi West 12.7 mph - N/A   Clear
5:58 PM 56.7 °F - 18.5 °F 23% 29.99 in 10.0 mi West 11.5 mph - N/A   Clear
6:58 PM 56.1 °F - 19.0 °F 24% 30.01 in 10.0 mi West 15.0 mph - N/A   Clear
7:58 PM 54.9 °F - 20.8 °F 27% 30.00 in 10.0 mi West 13.8 mph - N/A   Clear
8:58 PM 54.1 °F - 21.9 °F 29% 29.99 in 10.0 mi West 12.7 mph - N/A   Clear
9:58 PM 52.2 °F - 22.6 °F 32% 29.97 in 10.0 mi West 13.8 mph - N/A   Clear
10:58 PM 50.7 °F - 22.1 °F 33% 29.96 in 10.0 mi West 13.8 mph - N/A   Clear
11:58 PM 48.7 °F - 22.5 °F 36% 29.96 in 10.0 mi West 15.0 mph - N/A   Clear